Terminal Aerodrome Forecast
Issued by NWS Des Moines, IA

Home | Current Version | Previous Version | Text Only | Print | Product List | Glossary On
Versions: 1 2 3 4 5 6 7 8 9 10 11 12 13 14 15 16 17 18 19 20 21 22 23 24 25 26 27 28 29 30 31 32 33 34 35 36 37 38 39 40 41 42 43 44 45 46
000
FTUS43 KDMX 290534
TAFALO
TAF
KALO 290534Z 2906/3006 34008KT P6SM SCT008 BKN026
     FM290700 33015KT 4SM BR OVC008
     FM291000 33024G34KT 5SM BR OVC007
     FM291800 32022G30KT P6SM BKN012
     FM300100 32016KT P6SM SCT030=

USA.gov is the U.S. government's official web portal to all federal, state and local government web resources and services.